[[{"header":{"parameterUnit":"m.s-1","parameterCategory":1,"la1":30.2992,"la2":30.254,"lo1":-89.0895,"lo2":-89.0443,"dy":0.0025,"dx":0.0025,"nx":19,"ny":19,"refTime":"2026-04-30T03:00:00:Z","depth":0,"parameterNumber":2,"parameterNumberName":"U-component_of_WINDS"},"data":[0,0,0,-7.015,-7.0153,-7.0249,-7.0249,-7.0423,-7.0425,0,0,0,0,0,0,0,0,0,0,0,-7.0153,-7.0155,-7.015,-7.0153,-7.0249,-7.0249,-7.0423,-7.0425,0,0,0,0,0,0,0,0,0,0,0,-7.0152,-7.0154,-7.0157,-7.0154,-7.0249,-7.0249,-7.0422,-7.0332,0,0,0,0,0,0,0,0,0,0,-7.023,-7.0263,-7.0154,-7.0157,-7.0154,-7.0249,-7.0249,-7.0326,-7.0337,-7.0402,0,-7.0467,0,-7.0449,-7.044,-7.0441,0,0,0,-7.013,-7.0254,-7.0251,-7.0158,-7.0156,-7.0249,-7.0199,-7.0332,-7.0344,-7.0417,-7.0469,-7.0474,-7.0452,-7.0441,-7.0443,-7.089,-7.0894,0,0,-7.0125,-7.0187,-7.0243,-7.0261,-7.0249,-7.0196,-7.0202,-7.0339,-7.04,-7.047,-7.0477,-7.0455,-7.0443,-7.0445,-7.0887,-7.0891,0,0,0,-7.0125,-7.0185,-7.0177,-7.0255,-7.0269,-7.02,-7.0207,-7.0394,-7.0386,-7.0479,-7.0457,-7.0444,-7.0447,-7.0884,-7.0889,-7.1106,0,0,0,-7.0121,-7.0184,-7.0176,-7.0216,-7.0267,-7.0333,-7.026,-7.0377,-7.039,-7.0456,-7.0444,-7.0449,-7.088,-7.0886,-7.1093,-7.1199,0,0,0,-7.0136,-7.0186,-7.021,-7.0219,-7.0262,-7.0329,-7.0328,-7.0378,-7.0379,-7.0441,-7.045,-7.0878,-7.0885,-7.1081,-7.1179,-7.1335,0,0,0,-7.017,-7.0403,-7.0215,-7.0466,-7.0262,-7.0463,-7.0327,-7.0473,-7.0553,-7.0445,-7.0881,-7.0888,-7.1077,-7.1167,-7.1323,-7.1479,-7.1549,0,0,-7.0499,-7.0445,-7.0587,-7.0422,-7.0672,-7.0443,-7.0725,-7.0739,-7.0688,-7.0826,-7.0836,-7.1097,-7.1178,-7.1333,-7.1922,-7.1979,0,0,0,-7.0713,-7.0816,-7.0869,-7.0947,-7.0963,-7.0985,-7.0949,-7.0954,-7.1068,-7.0772,-7.1193,-7.124,-7.1328,-7.14,-7.1448,-7.152,-7.0924,-7.0923,-7.0922,-7.1268,-7.1189,-7.142,-7.1354,-7.1431,-7.1391,-7.1447,-7.1446,-7.1345,-7.1446,-7.1487,-7.1854,-7.1941,-7.1976,-7.2052,-7.1562,-7.1563,-7.1564,-7.1564,-7.1742,-7.1876,-7.1735,-7.1908,-7.1824,-7.1969,-7.1939,-7.1862,-7.1985,-7.1817,-7.1891,-7.1716,-7.2041,-7.2103,-7.158,-7.1577,-7.1575,-7.1574,-7.1573,-7.2097,-7.2148,-7.2149,-7.2254,-7.2343,-7.2267,-7.2391,-7.2309,-7.2234,-7.2307,-7.2341,-7.2337,-7.2324,-7.2329,-7.233,-7.2331,-7.2332,-7.2333,-7.2334,-7.2466,-7.246,-7.2574,-7.261,-7.2649,-7.2691,-7.2652,-7.2688,-7.2708,-7.2639,-7.2638,-7.2528,-7.2087,-7.1978,-7.2354,-7.235,-7.2348,-7.2346,-7.2345,-7.2977,-7.2848,-7.3025,-7.3065,-7.3099,-7.3193,-7.3087,-7.3168,-7.3186,-7.325,-7.3123,-7.281,-7.2749,-7.271,-7.262,-7.3139,-7.3139,-7.3139,-7.3139,-7.3278,-7.3238,-7.34,-7.3468,-7.3525,-7.3447,-7.365,-7.3622,-7.3573,-7.358,-7.3492,-7.3365,-7.3329,-7.3289,-7.3238,-7.3152,-7.3795,-7.3796,-7.3796,-7.3587,-7.3549,-7.3738,-7.3687,-7.3708,-7.3728,-7.3916,-7.4,-7.3918,-7.3821,-7.3583,-7.3555,-7.3348,-7.3285,-7.3185,-7.3107,-7.2948,0,0]},{"header":{"parameterUnit":"m.s-1","parameterCategory":1,"la1":30.2992,"la2":30.254,"lo1":-89.0895,"lo2":-89.0443,"dy":0.0025,"dx":0.0025,"nx":19,"ny":19,"refTime":"2026-04-30T03:00:00:Z","depth":0,"parameterNumber":3,"parameterNumberName":"V-component_of_WINDS"},"data":[0,0,0,-4.2276,-4.2277,-4.2326,-4.2327,-4.2401,-4.2402,0,0,0,0,0,0,0,0,0,0,0,-4.2269,-4.227,-4.2275,-4.2277,-4.2326,-4.2327,-4.2401,-4.2402,0,0,0,0,0,0,0,0,0,0,0,-4.2269,-4.227,-4.2271,-4.2277,-4.2326,-4.2327,-4.2401,-4.2359,0,0,0,0,0,0,0,0,0,0,-4.2309,-4.2312,-4.227,-4.2271,-4.2277,-4.2326,-4.2327,-4.2357,-4.2362,-4.2384,0,-4.2407,0,-4.2406,-4.2408,-4.2408,0,0,0,-4.227,-4.2308,-4.2314,-4.2271,-4.2278,-4.2326,-4.2302,-4.2359,-4.2365,-4.239,-4.2408,-4.2411,-4.2407,-4.2408,-4.2409,-4.256,-4.2561,0,0,-4.2268,-4.2283,-4.231,-4.2318,-4.2312,-4.2301,-4.2304,-4.2363,-4.2383,-4.2409,-4.2412,-4.2408,-4.2409,-4.241,-4.256,-4.2561,0,0,0,-4.2264,-4.2281,-4.2285,-4.2315,-4.2323,-4.2302,-4.2306,-4.238,-4.238,-4.2413,-4.2409,-4.2409,-4.2411,-4.2558,-4.256,-4.2624,0,0,0,-4.2262,-4.2279,-4.2284,-4.2294,-4.2322,-4.2353,-4.2322,-4.2376,-4.2382,-4.2409,-4.241,-4.2411,-4.2557,-4.2559,-4.262,-4.2652,0,0,0,-4.2263,-4.2279,-4.2289,-4.2295,-4.2316,-4.2351,-4.2354,-4.2377,-4.238,-4.2408,-4.2412,-4.2557,-4.2559,-4.2616,-4.2646,-4.2696,0,0,0,-4.2268,-4.2347,-4.229,-4.2376,-4.2316,-4.2391,-4.2354,-4.2409,-4.2441,-4.241,-4.2557,-4.256,-4.2615,-4.2642,-4.2692,-4.274,-4.2762,0,0,-4.2375,-4.236,-4.2409,-4.236,-4.2449,-4.2382,-4.248,-4.2494,-4.2483,-4.2535,-4.2538,-4.2622,-4.2646,-4.2695,-4.2879,-4.2896,0,0,0,-4.2448,-4.2483,-4.2503,-4.2534,-4.2547,-4.256,-4.2558,-4.2563,-4.2606,-4.2513,-4.2652,-4.2667,-4.2695,-4.2717,-4.2732,-4.2754,-4.2571,-4.2571,-4.257,-4.2622,-4.2602,-4.2681,-4.2667,-4.2697,-4.2693,-4.2715,-4.272,-4.2693,-4.2726,-4.2741,-4.2855,-4.2882,-4.2893,-4.2917,-4.2765,-4.2766,-4.2766,-4.2766,-4.2776,-4.2822,-4.2782,-4.2844,-4.2822,-4.2873,-4.2871,-4.2849,-4.2893,-4.2843,-4.2866,-4.2813,-4.2913,-4.2932,-4.2771,-4.277,-4.2769,-4.2769,-4.2769,-4.2888,-4.2906,-4.291,-4.2951,-4.2984,-4.2966,-4.3009,-4.2988,-4.2968,-4.2992,-4.3005,-4.3004,-4.2999,-4.2999,-4.3,-4.3,-4.3,-4.3001,-4.3001,-4.3002,-4.3004,-4.3044,-4.3062,-4.3077,-4.3095,-4.3089,-4.3103,-4.3114,-4.3095,-4.3095,-4.3063,-4.2926,-4.2892,-4.3007,-4.3006,-4.3005,-4.3005,-4.3004,-4.3166,-4.3125,-4.3186,-4.3201,-4.3219,-4.3252,-4.3223,-4.3253,-4.3262,-4.3283,-4.3246,-4.3148,-4.3131,-4.3119,-4.3091,-4.325,-4.325,-4.325,-4.325,-4.326,-4.3249,-4.3305,-4.333,-4.3352,-4.3332,-4.3399,-4.3394,-4.3383,-4.3387,-4.336,-4.3321,-4.331,-4.3299,-4.3283,-4.3256,-4.3454,-4.3455,-4.3455,-4.3359,-4.3348,-4.3411,-4.3399,-4.341,-4.342,-4.3482,-4.3512,-4.3491,-4.3463,-4.3389,-4.338,-4.3316,-4.3296,-4.3268,-4.3244,-4.3194,0,0]}]]